| time (UTC) | temp F | wind direction | speed knots | gust knots | rain 1hr in | rain 24hr in | rain mn in | humidity % | barometer mb |
| 20260503032832 | 37 | 314 | 0.9 | 1.7 | 0.00 | 0.00 | 0.00 | 76 | 1015.1 |
| 20260503032331 | 37 | 3 | 0.9 | 0.9 | 0.00 | 0.00 | 0.00 | 76 | 1015.0 |
| 20260503031828 | 37 | 3 | 0.9 | 0.9 | 0.00 | 0.00 | 0.00 | 76 | 1015.0 |
| 20260503031326 | 37 | 322 | 0.9 | 1.7 | 0.00 | 0.00 | 0.00 | 77 | 1015.2 |
| 20260503030822 | 37 | 14 | 0.0 | 0.9 | 0.00 | 0.00 | 0.00 | 77 | 1015.2 |
| 20260503030319 | 37 | 349 | 1.7 | 1.7 | 0.00 | 0.00 | 0.00 | 78 | 1015.1 |
| 20260503025815 | 37 | 338 | 3.5 | 3.5 | 0.00 | 0.00 | 0.00 | 78 | 1015.1 |
| 20260503025313 | 37 | 319 | 0.9 | 0.9 | 0.00 | 0.00 | 0.00 | 79 | 1015.3 |
| 20260503024809 | 37 | 285 | 2.6 | 2.6 | 0.00 | 0.00 | 0.00 | 79 | 1015.2 |
| 20260503024306 | 37 | 329 | 0.9 | 1.7 | 0.00 | 0.00 | 0.00 | 79 | 1015.2 |
| 20260503023803 | 37 | 287 | 0.9 | 1.7 | 0.00 | 0.00 | 0.00 | 79 | 1015.3 |
| 20260503023300 | 37 | 320 | 0.9 | 1.7 | 0.00 | 0.00 | 0.00 | 79 | 1015.3 |
| 20260503022757 | 37 | 352 | 0.0 | 0.9 | 0.00 | 0.00 | 0.00 | 79 | 1015.5 |
| 20260503022257 | 37 | 315 | 0.9 | 1.7 | 0.00 | 0.00 | 0.00 | 79 | 1015.4 |
| 20260503021754 | 37 | 320 | 1.7 | 2.6 | 0.00 | 0.00 | 0.00 | 78 | 1015.4 |
| 20260503021250 | 37 | 326 | 0.0 | 0.9 | 0.00 | 0.00 | 0.00 | 78 | 1015.5 |
| 20260503020748 | 37 | 286 | 0.0 | 0.0 | 0.00 | 0.00 | 0.00 | 78 | 1015.3 |
| 20260503020245 | 37 | 333 | 1.7 | 2.6 | 0.00 | 0.00 | 0.00 | 78 | 1015.1 |
| 20260503015741 | 37 | 355 | 0.9 | 0.9 | 0.00 | 0.00 | 0.00 | 78 | 1015.4 |
| 20260503015238 | 37 | 326 | 0.9 | 1.7 | 0.00 | 0.00 | 0.00 | 78 | 1015.2 |
| 20260503014734 | 37 | 322 | 0.9 | 1.7 | 0.00 | 0.00 | 0.00 | 78 | 1015.2 |
| 20260503014232 | 37 | 339 | 1.7 | 2.6 | 0.00 | 0.00 | 0.00 | 77 | 1015.1 |
| 20260503013729 | 37 | 323 | 1.7 | 1.7 | 0.00 | 0.00 | 0.00 | 77 | 1015.2 |
| 20260503013227 | 37 | 314 | 1.7 | 2.6 | 0.00 | 0.00 | 0.00 | 77 | 1015.2 |
| 20260503012724 | 37 | 303 | 0.9 | 0.9 | 0.00 | 0.00 | 0.00 | 77 | 1015.0 |
| 20260503012221 | 37 | 326 | 3.5 | 3.5 | 0.00 | 0.00 | 0.00 | 76 | 1015.1 |
| 20260503011717 | 37 | 357 | 3.5 | 3.5 | 0.00 | 0.00 | 0.00 | 76 | 1015.0 |
| 20260503011215 | 37 | 309 | 3.5 | 5.2 | 0.00 | 0.00 | 0.00 | 76 | 1014.9 |
| 20260503010710 | 38 | 319 | 0.0 | 0.9 | 0.00 | 0.00 | 0.00 | 75 | 1015.0 |
| 20260503010208 | 38 | 278 | 2.6 | 2.6 | 0.00 | 0.00 | 0.00 | 75 | 1015.1 |
| 20260503005705 | 38 | 334 | 2.6 | 3.5 | 0.00 | 0.00 | 0.00 | 74 | 1014.7 |
| 20260503005202 | 38 | 337 | 1.7 | 1.7 | 0.00 | 0.00 | 0.00 | 75 | 1014.8 |
| 20260503004658 | 38 | 314 | 2.6 | 2.6 | 0.00 | 0.00 | 0.00 | 75 | 1014.7 |
| 20260503004157 | 38 | 315 | 1.7 | 2.6 | 0.00 | 0.00 | 0.00 | 76 | 1014.7 |
| 20260503003654 | 38 | 323 | 3.5 | 3.5 | 0.00 | 0.00 | 0.00 | 76 | 1014.6 |
| 20260503003151 | 38 | 359 | 0.9 | 0.9 | 0.00 | 0.00 | 0.00 | 75 | 1014.4 |
| 20260503002647 | 38 | 343 | 3.5 | 5.2 | 0.00 | 0.00 | 0.00 | 75 | 1014.6 |
| 20260503002144 | 38 | 333 | 3.5 | 3.5 | 0.00 | 0.00 | 0.00 | 75 | 1014.4 |
| 20260503001640 | 39 | 2 | 1.7 | 1.7 | 0.00 | 0.00 | 0.00 | 74 | 1014.4 |
| 20260503001137 | 39 | 12 | 1.7 | 1.7 | 0.00 | 0.00 | 0.00 | 75 | 1014.3 |
| 20260503000635 | 39 | 334 | 2.6 | 2.6 | 0.00 | 0.00 | 0.00 | 74 | 1014.3 |
| 20260503000132 | 39 | 327 | 2.6 | 3.5 | 0.00 | 0.00 | 0.00 | 73 | 1014.4 |
| 20260502235628 | 39 | 316 | 3.5 | 6.1 | 0.00 | 0.00 | 0.00 | 73 | 1014.3 |
| 20260502235127 | 39 | 328 | 2.6 | 2.6 | 0.00 | 0.00 | 0.00 | 72 | 1014.4 |
| 20260502234622 | 39 | 330 | 0.9 | 0.9 | 0.00 | 0.00 | 0.00 | 71 | 1014.3 |
| 20260502234120 | 39 | 304 | 3.5 | 6.1 | 0.00 | 0.00 | 0.00 | 71 | 1014.3 |
| 20260502233615 | 39 | 334 | 2.6 | 3.5 | 0.00 | 0.00 | 0.00 | 70 | 1014.1 |
| 20260502233113 | 40 | 346 | 6.1 | 7.8 | 0.00 | 0.00 | 0.00 | 69 | 1014.1 |
| 20260502232608 | 40 | 335 | 3.5 | 5.2 | 0.00 | 0.00 | 0.00 | 69 | 1014.1 |
| 20260502232106 | 40 | 345 | 3.5 | 6.1 | 0.00 | 0.00 | 0.00 | 68 | 1014.1 |
| 20260502231603 | 41 | 4 | 4.3 | 6.1 | 0.00 | 0.00 | 0.00 | 67 | 1014.2 |
| 20260502231101 | 41 | 325 | 3.5 | 5.2 | 0.00 | 0.00 | 0.00 | 67 | 1013.9 |
| 20260502230559 | 41 | 34 | 5.2 | 7.8 | 0.00 | 0.00 | 0.00 | 66 | 1014.0 |
| 20260502230057 | 41 | 333 | 4.3 | 6.1 | 0.00 | 0.00 | 0.00 | 65 | 1013.9 |
| 20260502225552 | 42 | 313 | 6.1 | 7.0 | 0.00 | 0.00 | 0.00 | 65 | 1013.7 |
| 20260502225050 | 42 | 341 | 5.2 | 6.1 | 0.00 | 0.00 | 0.00 | 64 | 1013.8 |
| 20260502224545 | 42 | 309 | 2.6 | 2.6 | 0.00 | 0.00 | 0.00 | 65 | 1013.8 |
| 20260502224043 | 42 | 342 | 5.2 | 7.0 | 0.00 | 0.00 | 0.00 | 64 | 1013.8 |
| 20260502223540 | 42 | 32 | 1.7 | 2.6 | 0.00 | 0.00 | 0.00 | 67 | 1013.7 |
| 20260502223039 | 42 | 284 | 2.6 | 2.6 | 0.00 | 0.00 | 0.00 | 66 | 1013.8 |
| 20260502222535 | 42 | 316 | 3.5 | 5.2 | 0.00 | 0.00 | 0.00 | 65 | 1013.8 |
| 20260502222032 | 42 | 321 | 3.5 | 5.2 | 0.00 | 0.00 | 0.00 | 65 | 1013.6 |
| 20260502221527 | 43 | 342 | 4.3 | 6.1 | 0.00 | 0.00 | 0.00 | 64 | 1013.7 |
| 20260502221025 | 43 | 328 | 1.7 | 2.6 | 0.00 | 0.00 | 0.00 | 65 | 1013.6 |
| 20260502220520 | 43 | 319 | 2.6 | 2.6 | 0.00 | 0.00 | 0.00 | 65 | 1013.7 |
| 20260502220018 | 43 | 323 | 1.7 | 1.7 | 0.00 | 0.00 | 0.00 | 64 | 1013.7 |
| 20260502215515 | 43 | 43 | 1.7 | 2.6 | 0.00 | 0.00 | 0.00 | 62 | 1013.7 |
| 20260502215011 | 44 | 334 | 6.1 | 7.8 | 0.00 | 0.00 | 0.00 | 62 | 1013.4 |
| 20260502214509 | 44 | 331 | 4.3 | 7.0 | 0.00 | 0.00 | 0.00 | 62 | 1013.5 |
| 20260502214006 | 44 | 28 | 1.7 | 2.6 | 0.00 | 0.00 | 0.00 | 62 | 1013.5 |
| 20260502213502 | 44 | 337 | 5.2 | 6.1 | 0.00 | 0.00 | 0.00 | 61 | 1013.4 |
| 20260502213001 | 44 | 9 | 0.9 | 1.7 | 0.00 | 0.00 | 0.00 | 64 | 1013.5 |
| 20260502212459 | 43 | 289 | 0.9 | 0.9 | 0.00 | 0.00 | 0.00 | 64 | 1013.3 |
| 20260502211956 | 43 | 324 | 3.5 | 6.1 | 0.00 | 0.00 | 0.00 | 62 | 1013.3 |
| 20260502211452 | 44 | 286 | 4.3 | 6.1 | 0.00 | 0.00 | 0.00 | 60 | 1013.4 |
| 20260502210950 | 44 | 319 | 1.7 | 2.6 | 0.00 | 0.00 | 0.00 | 60 | 1013.3 |
| 20260502210446 | 44 | 21 | 3.5 | 5.2 | 0.00 | 0.00 | 0.00 | 60 | 1013.2 |
| 20260502205943 | 45 | 331 | 3.5 | 3.5 | 0.00 | 0.00 | 0.00 | 59 | 1013.4 |
| 20260502205439 | 45 | 311 | 3.5 | 5.2 | 0.00 | 0.00 | 0.00 | 60 | 1013.4 |
| 20260502204937 | 45 | 320 | 3.5 | 6.1 | 0.00 | 0.00 | 0.00 | 60 | 1013.4 |
| 20260502204433 | 45 | 237 | 1.7 | 2.6 | 0.00 | 0.00 | 0.00 | 58 | 1013.1 |
| 20260502203932 | 45 | 19 | 3.5 | 7.0 | 0.00 | 0.00 | 0.00 | 58 | 1013.0 |
| 20260502203428 | 45 | 357 | 3.5 | 5.2 | 0.00 | 0.00 | 0.00 | 57 | 1013.2 |
| 20260502202924 | 46 | 265 | 3.5 | 5.2 | 0.00 | 0.00 | 0.00 | 56 | 1013.1 |
| 20260502202421 | 46 | 324 | 5.2 | 7.0 | 0.00 | 0.00 | 0.00 | 55 | 1013.1 |
| 20260502201920 | 46 | 321 | 4.3 | 6.1 | 0.00 | 0.00 | 0.00 | 55 | 1013.0 |
| 20260502201415 | 47 | 348 | 2.6 | 3.5 | 0.00 | 0.00 | 0.00 | 55 | 1013.1 |
| 20260502200912 | 45 | 334 | 4.3 | 5.2 | 0.00 | 0.00 | 0.00 | 57 | 1013.3 |
| 20260502200407 | 45 | 327 | 4.3 | 5.2 | 0.00 | 0.00 | 0.00 | 57 | 1013.3 |
| 20260502195906 | 45 | 0 | 3.5 | 5.2 | 0.00 | 0.00 | 0.00 | 58 | 1013.5 |
| 20260502195403 | 45 | 356 | 3.5 | 6.1 | 0.00 | 0.00 | 0.00 | 60 | 1013.5 |
| 20260502194859 | 45 | 346 | 2.6 | 6.1 | 0.00 | 0.00 | 0.00 | 58 | 1013.3 |
| 20260502194356 | 45 | 320 | 4.3 | 7.0 | 0.00 | 0.00 | 0.00 | 58 | 1013.5 |
| 20260502193852 | 46 | 268 | 2.6 | 5.2 | 0.00 | 0.00 | 0.00 | 59 | 1013.6 |
| 20260502193349 | 45 | 329 | 2.6 | 5.2 | 0.00 | 0.00 | 0.00 | 59 | 1013.4 |
| 20260502192844 | 44 | 337 | 0.9 | 1.7 | 0.00 | 0.00 | 0.00 | 61 | 1013.5 |
| 20260502192342 | 45 | 7 | 2.6 | 2.6 | 0.00 | 0.00 | 0.00 | 57 | 1013.6 |
| 20260502191839 | 45 | 294 | 0.9 | 0.9 | 0.00 | 0.00 | 0.00 | 56 | 1013.6 |
| 20260502191337 | 46 | 262 | 1.7 | 1.7 | 0.00 | 0.00 | 0.00 | 56 | 1013.8 |
| 20260502190833 | 46 | 261 | 1.7 | 1.7 | 0.00 | 0.00 | 0.00 | 57 | 1013.6 |
| 20260502190331 | 46 | 273 | 0.9 | 2.6 | 0.00 | 0.00 | 0.00 | 59 | 1013.7 |
| 20260502185827 | 46 | 256 | 1.7 | 2.6 | 0.00 | 0.00 | 0.00 | 55 | 1013.9 |
| 20260502185322 | 47 | 332 | 4.3 | 6.1 | 0.00 | 0.00 | 0.00 | 58 | 1013.9 |
| 20260502184820 | 46 | 306 | 0.9 | 1.7 | 0.00 | 0.00 | 0.00 | 59 | 1013.9 |
| 20260502184315 | 46 | 259 | 1.7 | 2.6 | 0.00 | 0.00 | 0.00 | 58 | 1013.9 |
| 20260502183812 | 45 | 319 | 4.3 | 7.0 | 0.00 | 0.00 | 0.00 | 60 | 1014.0 |
| 20260502183308 | 44 | 335 | 4.3 | 6.1 | 0.00 | 0.00 | 0.00 | 61 | 1013.9 |
| 20260502182803 | 44 | 323 | 1.7 | 1.7 | 0.00 | 0.00 | 0.00 | 61 | 1013.9 |
| 20260502182259 | 45 | 323 | 3.5 | 5.2 | 0.00 | 0.00 | 0.00 | 60 | 1014.1 |
| 20260502181756 | 45 | 358 | 3.5 | 5.2 | 0.00 | 0.00 | 0.00 | 58 | 1014.1 |
| 20260502181255 | 46 | 263 | 2.6 | 3.5 | 0.00 | 0.00 | 0.00 | 54 | 1014.0 |
| 20260502180752 | 47 | 290 | 1.7 | 1.7 | 0.00 | 0.00 | 0.00 | 51 | 1013.9 |
| 20260502180249 | 46 | 327 | 3.5 | 5.2 | 0.00 | 0.00 | 0.00 | 55 | 1014.3 |
| 20260502170214 | 44 | 280 | 0.9 | 1.7 | 0.00 | 0.00 | 0.00 | 61 | 1014.1 |
| 20260502164201 | 46 | 288 | 0.9 | 0.9 | 0.00 | 0.00 | 0.00 | 58 | 1014.2 |
| 20260502163656 | 46 | 267 | 1.7 | 1.7 | 0.00 | 0.00 | 0.00 | 54 | 1014.2 |
| 20260502163153 | 45 | 325 | 1.7 | 2.6 | 0.00 | 0.00 | 0.00 | 57 | 1014.2 |
| 20260502162650 | 44 | 292 | 1.7 | 1.7 | 0.00 | 0.00 | 0.00 | 61 | 1014.2 |
| 20260502162147 | 44 | 259 | 1.7 | 2.6 | 0.00 | 0.00 | 0.00 | 60 | 1014.2 |
| 20260502161644 | 44 | 320 | 4.3 | 7.0 | 0.00 | 0.00 | 0.00 | 60 | 1014.3 |
| 20260502161141 | 44 | 272 | 1.7 | 1.7 | 0.00 | 0.00 | 0.00 | 59 | 1014.2 |
| 20260502160639 | 45 | 264 | 1.7 | 1.7 | 0.00 | 0.00 | 0.00 | 55 | 1014.4 |
| 20260502160137 | 46 | 274 | 2.6 | 3.5 | 0.00 | 0.00 | 0.00 | 55 | 1014.3 |
| 20260502152051 | 43 | 253 | 1.7 | 2.6 | 0.00 | 0.00 | 0.00 | 60 | 1014.4 |
| 20260502151548 | 44 | 295 | 1.7 | 1.7 | 0.00 | 0.00 | 0.00 | 63 | 1014.3 |
| 20260502151046 | 46 | 273 | 2.6 | 2.6 | 0.00 | 0.00 | 0.00 | 61 | 1014.3 |
| 20260502150543 | 45 | 264 | 0.9 | 1.7 | 0.00 | 0.00 | 0.00 | 62 | 1014.4 |
| 20260502130428 | 41 | 289 | 0.9 | 1.7 | 0.00 | 0.00 | 0.00 | 76 | 1014.3 |
| 20260502123410 | 39 | 322 | 0.9 | 0.9 | 0.00 | 0.00 | 0.00 | 83 | 1014.7 |
| 20260502122908 | 38 | 350 | 0.9 | 1.7 | 0.00 | 0.00 | 0.00 | 83 | 1014.9 |
| 20260502122404 | 38 | 10 | 0.9 | 0.9 | 0.00 | 0.00 | 0.00 | 83 | 1014.8 |
| 20260502121902 | 37 | 336 | 0.9 | 0.9 | 0.00 | 0.00 | 0.00 | 84 | 1014.9 |
| 20260502121359 | 37 | 326 | 0.0 | 0.9 | 0.00 | 0.00 | 0.00 | 84 | 1014.8 |
| 20260502120857 | 37 | 321 | 1.7 | 1.7 | 0.00 | 0.00 | 0.00 | 84 | 1014.8 |
| 20260502120352 | 37 | 338 | 1.7 | 1.7 | 0.00 | 0.00 | 0.00 | 84 | 1015.1 |
| 20260502115850 | 37 | 317 | 0.0 | 0.0 | 0.00 | 0.00 | 0.00 | 85 | 1014.9 |
| 20260502115347 | 37 | 274 | 0.0 | 0.9 | 0.00 | 0.00 | 0.00 | 85 | 1014.8 |
| 20260502114843 | 37 | 321 | 0.0 | 0.9 | 0.00 | 0.00 | 0.00 | 85 | 1014.9 |
| 20260502114340 | 37 | 312 | 0.0 | 0.9 | 0.00 | 0.00 | 0.00 | 86 | 1015.0 |
| 20260502113837 | 37 | 258 | 0.0 | 0.0 | 0.00 | 0.00 | 0.00 | 86 | 1015.2 |
| 20260502113335 | 36 | 270 | 0.0 | 0.9 | 0.00 | 0.00 | 0.00 | 86 | 1015.1 |
| 20260502112833 | 36 | 270 | 0.9 | 0.9 | 0.00 | 0.00 | 0.00 | 87 | 1015.2 |
| 20260502112330 | 36 | 268 | 0.0 | 0.0 | 0.00 | 0.00 | 0.00 | 88 | 1015.1 |
| 20260502111827 | 36 | 268 | 0.0 | 0.0 | 0.00 | 0.00 | 0.00 | 89 | 1015.3 |
| 20260502111325 | 36 | 268 | 0.0 | 0.0 | 0.00 | 0.00 | 0.00 | 89 | 1015.1 |
| 20260502110823 | 36 | 276 | 0.0 | 0.0 | 0.00 | 0.00 | 0.00 | 89 | 1015.1 |
| 20260502110320 | 36 | 280 | 0.0 | 0.9 | 0.00 | 0.00 | 0.00 | 90 | 1015.0 |
| 20260502105817 | 36 | 280 | 0.0 | 0.0 | 0.00 | 0.00 | 0.00 | 90 | 1014.8 |
| 20260502105314 | 36 | 276 | 0.0 | 0.9 | 0.00 | 0.00 | 0.00 | 90 | 1014.9 |
| 20260502104812 | 36 | 277 | 0.0 | 0.0 | 0.00 | 0.00 | 0.00 | 90 | 1014.8 |
| 20260502104309 | 36 | 277 | 0.0 | 0.0 | 0.00 | 0.00 | 0.00 | 91 | 1014.7 |
| 20260502103806 | 36 | 276 | 0.0 | 0.0 | 0.00 | 0.00 | 0.00 | 91 | 1014.8 |
| 20260502103303 | 36 | 276 | 0.0 | 0.0 | 0.00 | 0.00 | 0.00 | 91 | 1014.7 |
| 20260502102801 | 35 | 276 | 0.0 | 0.0 | 0.00 | 0.00 | 0.00 | 91 | 1014.8 |
| 20260502102257 | 35 | 276 | 0.0 | 0.0 | 0.00 | 0.00 | 0.00 | 91 | 1014.8 |
| 20260502101755 | 35 | 276 | 0.0 | 0.0 | 0.00 | 0.00 | 0.00 | 90 | 1014.6 |
| 20260502101253 | 36 | 276 | 0.0 | 0.0 | 0.00 | 0.00 | 0.00 | 90 | 1014.4 |
| 20260502100751 | 36 | 277 | 0.0 | 0.0 | 0.00 | 0.00 | 0.00 | 90 | 1014.8 |
| 20260502100249 | 36 | 278 | 0.0 | 0.0 | 0.00 | 0.00 | 0.00 | 90 | 1014.6 |
| 20260502091224 | 36 | 320 | 0.0 | 0.0 | 0.00 | 0.06 | 0.06 | 90 | 1014.6 |
| 20260502090721 | 35 | 321 | 0.0 | 0.0 | 0.00 | 0.06 | 0.06 | 90 | 1014.8 |
| 20260502090217 | 35 | 321 | 0.0 | 0.0 | 0.00 | 0.06 | 0.06 | 90 | 1014.7 |
| 20260502071113 | 37 | 307 | 0.0 | 0.0 | 0.00 | 0.06 | 0.06 | 86 | 1014.9 |
| 20260502070611 | 37 | 261 | 0.0 | 0.9 | 0.00 | 0.06 | 0.06 | 86 | 1014.9 |
| 20260502070109 | 37 | 329 | 0.9 | 1.7 | 0.00 | 0.06 | 0.06 | 87 | 1014.8 |
| 20260502065607 | 37 | 337 | 0.9 | 1.7 | 0.00 | 0.06 | 0.06 | 87 | 1014.9 |
| 20260502065104 | 37 | 336 | 1.7 | 2.6 | 0.00 | 0.06 | 0.06 | 87 | 1014.7 |
| 20260502064602 | 37 | 329 | 1.7 | 1.7 | 0.00 | 0.06 | 0.06 | 87 | 1014.7 |
| 20260502064059 | 37 | 332 | 0.9 | 0.9 | 0.00 | 0.06 | 0.06 | 87 | 1014.7 |
| 20260502063557 | 37 | 15 | 0.0 | 0.9 | 0.00 | 0.06 | 0.06 | 88 | 1014.7 |
| 20260502063054 | 37 | 341 | 0.9 | 0.9 | 0.00 | 0.06 | 0.06 | 88 | 1014.7 |
| 20260502062551 | 37 | 329 | 0.9 | 1.7 | 0.00 | 0.06 | 0.06 | 88 | 1014.7 |
| 20260502062049 | 37 | 319 | 0.0 | 0.9 | 0.00 | 0.06 | 0.06 | 87 | 1014.4 |
| 20260502061547 | 37 | 294 | 0.0 | 0.9 | 0.00 | 0.06 | 0.06 | 87 | 1014.4 |
| 20260502061044 | 37 | 0 | 1.7 | 1.7 | 0.00 | 0.06 | 0.06 | 87 | 1014.4 |
| 20260502060539 | 37 | 283 | 0.0 | 0.9 | 0.00 | 0.06 | 0.06 | 87 | 1014.8 |
| 20260502060036 | 37 | 330 | 0.9 | 0.9 | 0.00 | 0.06 | 0.06 | 87 | 1014.8 |
| 20260502055534 | 37 | 327 | 0.9 | 0.9 | 0.00 | 0.06 | 0.06 | 87 | 1014.8 |
| 20260502055032 | 37 | 320 | 0.9 | 1.7 | 0.00 | 0.06 | 0.06 | 88 | 1014.9 |
| 20260502054531 | 37 | 306 | 0.0 | 0.0 | 0.00 | 0.06 | 0.06 | 88 | 1014.9 |
| 20260502054027 | 37 | 328 | 0.0 | 0.9 | 0.00 | 0.06 | 0.06 | 89 | 1015.0 |
| 20260502053524 | 37 | 330 | 0.9 | 1.7 | 0.00 | 0.06 | 0.06 | 88 | 1014.8 |
| 20260502053022 | 37 | 326 | 1.7 | 1.7 | 0.00 | 0.06 | 0.06 | 88 | 1014.9 |
| 20260502052520 | 37 | 304 | 0.9 | 1.7 | 0.00 | 0.06 | 0.06 | 88 | 1014.7 |
| 20260502052018 | 37 | 333 | 1.7 | 1.7 | 0.00 | 0.06 | 0.06 | 88 | 1014.7 |
| 20260502051516 | 37 | 2 | 0.9 | 1.7 | 0.00 | 0.06 | 0.06 | 89 | 1014.7 |
| 20260502051013 | 38 | 324 | 3.5 | 3.5 | 0.00 | 0.06 | 0.06 | 89 | 1014.7 |
| 20260502050509 | 38 | 356 | 1.7 | 1.7 | 0.00 | 0.06 | 0.06 | 89 | 1014.8 |
| 20260502050007 | 38 | 27 | 2.6 | 2.6 | 0.00 | 0.06 | 0.06 | 89 | 1014.4 |
| 20260502045503 | 38 | 324 | 2.6 | 3.5 | 0.00 | 0.06 | 0.06 | 89 | 1014.4 |
| 20260502045000 | 38 | 349 | 2.6 | 5.2 | 0.00 | 0.06 | 0.06 | 89 | 1014.3 |
| 20260502044456 | 39 | 340 | 1.7 | 2.6 | 0.00 | 0.06 | 0.06 | 89 | 1014.4 |
| 20260502043953 | 39 | 304 | 5.2 | 7.0 | 0.00 | 0.06 | 0.06 | 89 | 1014.4 |
| 20260502043451 | 39 | 352 | 7.8 | 7.8 | 0.00 | 0.06 | 0.06 | 90 | 1014.3 |
| 20260502042950 | 39 | 340 | 3.5 | 3.5 | 0.00 | 0.06 | 0.06 | 90 | 1014.3 |
| 20260502042447 | 39 | 353 | 1.7 | 2.6 | 0.00 | 0.06 | 0.06 | 90 | 1014.3 |
| 20260502041944 | 39 | 333 | 3.5 | 5.2 | 0.00 | 0.06 | 0.06 | 90 | 1014.4 |
| 20260502041442 | 39 | 287 | 2.6 | 2.6 | 0.00 | 0.06 | 0.06 | 90 | 1014.2 |
| 20260502040939 | 39 | 257 | 2.6 | 2.6 | 0.00 | 0.06 | 0.06 | 90 | 1014.4 |
| 20260502040435 | 39 | 275 | 0.9 | 1.7 | 0.00 | 0.06 | 0.06 | 90 | 1014.4 |
| 20260502035932 | 39 | 303 | 0.0 | 0.9 | 0.00 | 0.06 | 0.06 | 90 | 1014.7 |
| 20260502035428 | 39 | 300 | 1.7 | 2.6 | 0.00 | 0.06 | 0.06 | 90 | 1014.3 |
| 20260502034926 | 39 | 292 | 0.9 | 0.9 | 0.00 | 0.06 | 0.06 | 91 | 1014.2 |
| 20260502034425 | 40 | 227 | 0.9 | 0.9 | 0.00 | 0.06 | 0.06 | 91 | 1014.2 |
| 20260502033923 | 40 | 323 | 1.7 | 2.6 | 0.00 | 0.06 | 0.06 | 91 | 1014.2 |
| 20260502033420 | 40 | 5 | 0.9 | 1.7 | 0.00 | 0.06 | 0.06 | 91 | 1014.1 |